| time (UTC) | temp F | wind direction | speed knots | gust knots | rain 1hr in | rain 24hr in | rain mn in | humidity % | barometer mb |
| 20260503051418 | 52 | 346 | 6.1 | 7.8 | 0.00 | 0.00 | 0.00 | 51 | 1011.0 |
| 20260503050915 | 52 | 5 | 3.5 | 7.0 | 0.00 | 0.00 | 0.00 | 52 | 1011.0 |
| 20260503050410 | 52 | 337 | 2.6 | 8.7 | 0.00 | 0.00 | 0.00 | 52 | 1011.0 |
| 20260503045908 | 52 | 356 | 4.3 | 7.0 | 0.00 | 0.00 | 0.00 | 53 | 1011.3 |
| 20260503045406 | 52 | 356 | 7.8 | 9.6 | 0.00 | 0.00 | 0.00 | 53 | 1011.1 |
| 20260503044902 | 52 | 356 | 5.2 | 8.7 | 0.00 | 0.00 | 0.00 | 53 | 1011.1 |
| 20260503044359 | 52 | 345 | 3.5 | 7.8 | 0.00 | 0.00 | 0.00 | 54 | 1011.1 |
| 20260503043856 | 52 | 351 | 7.0 | 7.8 | 0.00 | 0.00 | 0.00 | 53 | 1011.0 |
| 20260503043353 | 52 | 18 | 4.3 | 11.3 | 0.00 | 0.00 | 0.00 | 53 | 1011.1 |
| 20260503042849 | 52 | 29 | 2.6 | 7.8 | 0.00 | 0.00 | 0.00 | 53 | 1011.0 |
| 20260503042346 | 52 | 352 | 6.1 | 9.6 | 0.00 | 0.00 | 0.00 | 53 | 1010.9 |
| 20260503041842 | 53 | 7 | 5.2 | 7.0 | 0.00 | 0.00 | 0.00 | 52 | 1011.1 |
| 20260503041340 | 53 | 2 | 2.6 | 7.8 | 0.00 | 0.00 | 0.00 | 52 | 1011.2 |
| 20260503040837 | 53 | 348 | 6.1 | 6.1 | 0.00 | 0.00 | 0.00 | 52 | 1011.2 |
| 20260503040335 | 53 | 357 | 3.5 | 6.1 | 0.00 | 0.00 | 0.00 | 53 | 1011.2 |
| 20260503035831 | 53 | 20 | 3.5 | 8.7 | 0.00 | 0.03 | 0.03 | 52 | 1011.1 |
| 20260503035328 | 53 | 1 | 4.3 | 5.2 | 0.00 | 0.03 | 0.03 | 52 | 1011.2 |
| 20260503034826 | 53 | 348 | 2.6 | 7.8 | 0.00 | 0.03 | 0.03 | 52 | 1011.2 |
| 20260503034323 | 53 | 5 | 6.1 | 7.8 | 0.00 | 0.03 | 0.03 | 52 | 1010.9 |
| 20260503033820 | 53 | 359 | 3.5 | 9.6 | 0.00 | 0.03 | 0.03 | 51 | 1010.9 |
| 20260503033318 | 53 | 345 | 3.5 | 7.0 | 0.00 | 0.03 | 0.03 | 52 | 1011.1 |
| 20260503032815 | 53 | 356 | 2.6 | 9.6 | 0.00 | 0.03 | 0.03 | 52 | 1011.1 |
| 20260503032314 | 53 | 355 | 4.3 | 7.0 | 0.00 | 0.03 | 0.03 | 53 | 1010.8 |
| 20260503031811 | 53 | 351 | 7.0 | 8.7 | 0.00 | 0.03 | 0.03 | 53 | 1010.8 |
| 20260503031309 | 53 | 352 | 4.3 | 6.1 | 0.00 | 0.03 | 0.03 | 53 | 1010.8 |
| 20260503030805 | 53 | 353 | 4.3 | 9.6 | 0.00 | 0.03 | 0.03 | 54 | 1011.0 |
| 20260503030301 | 54 | 0 | 7.0 | 10.4 | 0.00 | 0.03 | 0.03 | 54 | 1010.9 |
| 20260503025758 | 53 | 13 | 1.7 | 7.8 | 0.00 | 0.03 | 0.03 | 53 | 1011.0 |
| 20260503025256 | 54 | 347 | 6.1 | 7.0 | 0.00 | 0.03 | 0.03 | 52 | 1010.8 |
| 20260503024752 | 54 | 345 | 7.8 | 9.6 | 0.00 | 0.03 | 0.03 | 51 | 1011.1 |
| 20260503024249 | 54 | 357 | 6.1 | 8.7 | 0.00 | 0.03 | 0.03 | 51 | 1010.9 |
| 20260503023746 | 53 | 352 | 3.5 | 7.8 | 0.00 | 0.03 | 0.03 | 53 | 1010.9 |
| 20260503023243 | 53 | 350 | 3.5 | 7.8 | 0.00 | 0.03 | 0.03 | 57 | 1011.1 |
| 20260503022739 | 52 | 328 | 0.9 | 1.7 | 0.00 | 0.03 | 0.03 | 67 | 1010.9 |
| 20260503022234 | 52 | 341 | 2.6 | 4.3 | 0.00 | 0.03 | 0.03 | 67 | 1010.9 |
| 20260503021731 | 52 | 331 | 1.7 | 3.5 | 0.00 | 0.03 | 0.03 | 70 | 1011.1 |
| 20260503021227 | 52 | 328 | 2.6 | 2.6 | 0.00 | 0.03 | 0.03 | 75 | 1011.4 |
| 20260503020725 | 51 | 324 | 1.7 | 3.5 | 0.00 | 0.03 | 0.03 | 77 | 1011.2 |
| 20260503020222 | 51 | 329 | 1.7 | 2.6 | 0.00 | 0.03 | 0.03 | 81 | 1011.2 |
| 20260503015719 | 50 | 264 | 1.7 | 2.6 | 0.00 | 0.03 | 0.03 | 84 | 1011.5 |
| 20260503015216 | 50 | 222 | 0.9 | 0.9 | 0.00 | 0.03 | 0.03 | 86 | 1011.4 |
| 20260503014711 | 50 | 255 | 0.0 | 0.9 | 0.00 | 0.03 | 0.03 | 85 | 1011.5 |
| 20260503014210 | 51 | 249 | 0.9 | 1.7 | 0.00 | 0.03 | 0.03 | 85 | 1011.3 |
| 20260503013706 | 51 | 151 | 0.0 | 1.7 | 0.00 | 0.03 | 0.03 | 84 | 1011.2 |
| 20260503013204 | 51 | 206 | 1.7 | 1.7 | 0.00 | 0.03 | 0.03 | 83 | 1011.4 |
| 20260503012702 | 51 | 353 | 1.7 | 2.6 | 0.00 | 0.03 | 0.03 | 83 | 1011.2 |
| 20260503012158 | 51 | 300 | 0.0 | 2.6 | 0.00 | 0.03 | 0.03 | 82 | 1011.2 |
| 20260503011654 | 51 | 203 | 2.6 | 3.5 | 0.00 | 0.03 | 0.03 | 81 | 1011.3 |
| 20260503011152 | 51 | 358 | 2.6 | 3.5 | 0.00 | 0.03 | 0.03 | 82 | 1011.2 |
| 20260503010648 | 51 | 300 | 0.9 | 1.7 | 0.00 | 0.03 | 0.03 | 82 | 1011.3 |
| 20260503010145 | 52 | 160 | 0.9 | 1.7 | 0.00 | 0.03 | 0.03 | 81 | 1010.9 |
| 20260503005642 | 52 | 163 | 0.9 | 4.3 | 0.00 | 0.03 | 0.03 | 80 | 1010.8 |
| 20260503005139 | 52 | 165 | 0.9 | 1.7 | 0.00 | 0.03 | 0.03 | 80 | 1011.1 |
| 20260503004636 | 52 | 198 | 1.7 | 3.5 | 0.00 | 0.03 | 0.03 | 80 | 1011.0 |
| 20260503004134 | 52 | 170 | 0.9 | 1.7 | 0.00 | 0.03 | 0.03 | 81 | 1010.7 |
| 20260503003631 | 52 | 168 | 0.0 | 1.7 | 0.00 | 0.03 | 0.03 | 80 | 1010.8 |
| 20260503003128 | 52 | 170 | 1.7 | 1.7 | 0.00 | 0.03 | 0.03 | 80 | 1010.7 |
| 20260503002625 | 52 | 175 | 2.6 | 3.5 | 0.00 | 0.03 | 0.03 | 80 | 1010.8 |
| 20260503002122 | 52 | 201 | 2.6 | 2.6 | 0.00 | 0.03 | 0.03 | 80 | 1010.5 |
| 20260503001618 | 52 | 188 | 1.7 | 3.5 | 0.00 | 0.03 | 0.03 | 80 | 1010.7 |
| 20260503001115 | 53 | 135 | 2.6 | 3.5 | 0.00 | 0.03 | 0.03 | 80 | 1010.7 |
| 20260503000612 | 53 | 176 | 1.7 | 4.3 | 0.00 | 0.03 | 0.03 | 80 | 1010.6 |
| 20260503000109 | 53 | 150 | 1.7 | 3.5 | 0.00 | 0.03 | 0.03 | 80 | 1010.7 |
| 20260502235606 | 53 | 155 | 2.6 | 3.5 | 0.00 | 0.03 | 0.03 | 79 | 1010.6 |
| 20260502235104 | 53 | 142 | 3.5 | 5.2 | 0.00 | 0.03 | 0.03 | 79 | 1010.7 |
| 20260502234559 | 53 | 123 | 2.6 | 3.5 | 0.00 | 0.03 | 0.03 | 77 | 1010.5 |
| 20260502234058 | 54 | 131 | 3.5 | 4.3 | 0.00 | 0.03 | 0.03 | 76 | 1010.4 |
| 20260502233558 | 54 | 161 | 1.7 | 2.6 | 0.00 | 0.03 | 0.03 | 76 | 1010.4 |
| 20260502233055 | 54 | 127 | 2.6 | 3.5 | 0.00 | 0.03 | 0.03 | 76 | 1010.5 |
| 20260502232551 | 54 | 144 | 1.7 | 2.6 | 0.00 | 0.03 | 0.03 | 75 | 1010.2 |
| 20260502232049 | 54 | 148 | 2.6 | 4.3 | 0.00 | 0.03 | 0.03 | 74 | 1010.4 |
| 20260502231545 | 55 | 132 | 4.3 | 5.2 | 0.00 | 0.03 | 0.03 | 74 | 1010.4 |
| 20260502231043 | 55 | 127 | 3.5 | 5.2 | 0.00 | 0.03 | 0.03 | 74 | 1010.3 |
| 20260502230541 | 55 | 133 | 2.6 | 2.6 | 0.00 | 0.03 | 0.03 | 74 | 1010.3 |
| 20260502230039 | 55 | 139 | 2.6 | 5.2 | 0.00 | 0.03 | 0.03 | 74 | 1010.3 |
| 20260502225534 | 55 | 120 | 4.3 | 6.1 | 0.00 | 0.03 | 0.03 | 74 | 1010.5 |
| 20260502225032 | 56 | 161 | 2.6 | 7.0 | 0.00 | 0.03 | 0.03 | 74 | 1010.3 |
| 20260502224528 | 56 | 140 | 1.7 | 6.1 | 0.00 | 0.03 | 0.03 | 72 | 1010.5 |
| 20260502224025 | 56 | 129 | 3.5 | 6.1 | 0.00 | 0.03 | 0.03 | 70 | 1010.1 |
| 20260502223523 | 57 | 93 | 2.6 | 4.3 | 0.00 | 0.03 | 0.03 | 69 | 1010.2 |
| 20260502223021 | 57 | 102 | 2.6 | 6.1 | 0.00 | 0.03 | 0.03 | 68 | 1010.3 |
| 20260502222518 | 57 | 102 | 3.5 | 4.3 | 0.00 | 0.03 | 0.03 | 68 | 1010.2 |
| 20260502222014 | 57 | 122 | 6.1 | 6.1 | 0.00 | 0.03 | 0.03 | 68 | 1010.3 |
| 20260502221510 | 58 | 95 | 4.3 | 4.3 | 0.00 | 0.03 | 0.03 | 67 | 1010.2 |
| 20260502221008 | 58 | 81 | 1.7 | 4.3 | 0.00 | 0.03 | 0.03 | 65 | 1010.2 |
| 20260502220503 | 58 | 82 | 2.6 | 4.3 | 0.00 | 0.03 | 0.03 | 65 | 1010.4 |
| 20260502220000 | 58 | 95 | 3.5 | 4.3 | 0.00 | 0.03 | 0.03 | 65 | 1010.3 |
| 20260502215457 | 58 | 71 | 1.7 | 3.5 | 0.00 | 0.03 | 0.03 | 61 | 1010.3 |
| 20260502214954 | 58 | 110 | 2.6 | 5.2 | 0.00 | 0.03 | 0.03 | 62 | 1010.3 |
| 20260502214451 | 59 | 81 | 2.6 | 6.1 | 0.00 | 0.03 | 0.03 | 61 | 1009.9 |
| 20260502213948 | 58 | 123 | 2.6 | 5.2 | 0.00 | 0.03 | 0.03 | 61 | 1010.3 |
| 20260502213445 | 59 | 173 | 0.9 | 4.3 | 0.00 | 0.03 | 0.03 | 60 | 1010.0 |
| 20260502212943 | 60 | 33 | 4.3 | 4.3 | 0.00 | 0.03 | 0.03 | 57 | 1009.9 |
| 20260502212442 | 61 | 109 | 3.5 | 5.2 | 0.00 | 0.03 | 0.03 | 49 | 1009.9 |
| 20260502211939 | 61 | 291 | 0.9 | 1.7 | 0.00 | 0.03 | 0.03 | 44 | 1009.7 |
| 20260502211434 | 61 | 336 | 0.0 | 1.7 | 0.00 | 0.03 | 0.03 | 45 | 1009.6 |
| 20260502210932 | 61 | 305 | 4.3 | 4.3 | 0.00 | 0.03 | 0.03 | 44 | 1009.7 |
| 20260502210428 | 61 | 348 | 2.6 | 3.5 | 0.00 | 0.03 | 0.03 | 45 | 1009.6 |
| 20260502205926 | 62 | 353 | 1.7 | 2.6 | 0.00 | 0.03 | 0.03 | 46 | 1009.9 |
| 20260502205422 | 61 | 266 | 2.6 | 4.3 | 0.00 | 0.03 | 0.03 | 45 | 1009.9 |
| 20260502204919 | 61 | 307 | 0.0 | 4.3 | 0.00 | 0.03 | 0.03 | 45 | 1009.9 |
| 20260502204416 | 61 | 329 | 2.6 | 4.3 | 0.00 | 0.03 | 0.03 | 46 | 1009.7 |
| 20260502203914 | 62 | 342 | 1.7 | 6.1 | 0.00 | 0.03 | 0.03 | 46 | 1009.8 |
| 20260502203411 | 62 | 272 | 6.1 | 7.8 | 0.00 | 0.03 | 0.03 | 45 | 1009.6 |
| 20260502202907 | 62 | 4 | 4.3 | 12.2 | 0.00 | 0.03 | 0.03 | 47 | 1009.8 |
| 20260502202404 | 61 | 354 | 7.8 | 8.7 | 0.00 | 0.03 | 0.03 | 47 | 1009.6 |
| 20260502201902 | 64 | 229 | 3.5 | 5.2 | 0.00 | 0.03 | 0.03 | 44 | 1009.7 |
| 20260502201358 | 65 | 319 | 2.6 | 6.1 | 0.00 | 0.03 | 0.03 | 44 | 1009.9 |
| 20260502200855 | 65 | 286 | 5.2 | 6.1 | 0.00 | 0.03 | 0.03 | 41 | 1009.8 |
| 20260502200350 | 62 | 301 | 1.7 | 4.3 | 0.00 | 0.03 | 0.03 | 47 | 1009.9 |
| 20260502195848 | 63 | 282 | 1.7 | 6.1 | 0.00 | 0.03 | 0.03 | 47 | 1009.9 |
| 20260502195345 | 65 | 264 | 0.0 | 1.7 | 0.00 | 0.03 | 0.03 | 47 | 1010.0 |
| 20260502194841 | 62 | 218 | 1.7 | 4.3 | 0.00 | 0.03 | 0.03 | 51 | 1010.4 |
| 20260502194338 | 61 | 147 | 1.7 | 2.6 | 0.00 | 0.03 | 0.03 | 51 | 1010.2 |
| 20260502193834 | 61 | 55 | 3.5 | 3.5 | 0.00 | 0.03 | 0.03 | 53 | 1010.4 |
| 20260502193332 | 60 | 309 | 6.1 | 7.8 | 0.00 | 0.03 | 0.03 | 55 | 1010.3 |
| 20260502192827 | 61 | 6 | 2.6 | 3.5 | 0.00 | 0.03 | 0.03 | 54 | 1010.6 |
| 20260502192324 | 61 | 315 | 0.9 | 2.6 | 0.00 | 0.03 | 0.03 | 58 | 1010.6 |
| 20260502191821 | 60 | 339 | 0.9 | 6.1 | 0.00 | 0.03 | 0.03 | 54 | 1010.7 |
| 20260502191320 | 61 | 306 | 0.0 | 1.7 | 0.00 | 0.03 | 0.03 | 57 | 1010.8 |
| 20260502190816 | 61 | 349 | 1.7 | 1.7 | 0.00 | 0.03 | 0.03 | 60 | 1010.7 |
| 20260502190314 | 61 | 286 | 2.6 | 4.3 | 0.00 | 0.03 | 0.03 | 59 | 1011.0 |
| 20260502185809 | 60 | 122 | 3.5 | 4.3 | 0.00 | 0.03 | 0.03 | 62 | 1011.0 |
| 20260502185305 | 60 | 172 | 4.3 | 5.2 | 0.00 | 0.03 | 0.03 | 61 | 1011.1 |
| 20260502184802 | 59 | 189 | 2.6 | 6.1 | 0.00 | 0.03 | 0.03 | 64 | 1010.9 |
| 20260502184257 | 59 | 217 | 3.5 | 4.3 | 0.00 | 0.03 | 0.03 | 65 | 1011.1 |
| 20260502183754 | 59 | 212 | 2.6 | 5.2 | 0.00 | 0.03 | 0.03 | 66 | 1011.0 |
| 20260502183250 | 60 | 205 | 2.6 | 6.1 | 0.00 | 0.03 | 0.03 | 65 | 1011.2 |
| 20260502182746 | 59 | 207 | 3.5 | 6.1 | 0.00 | 0.03 | 0.03 | 66 | 1011.4 |
| 20260502182241 | 59 | 207 | 3.5 | 6.1 | 0.00 | 0.03 | 0.03 | 67 | 1011.5 |
| 20260502181737 | 59 | 214 | 4.3 | 7.8 | 0.00 | 0.03 | 0.03 | 67 | 1011.2 |
| 20260502181232 | 57 | 181 | 5.2 | 6.1 | 0.00 | 0.03 | 0.03 | 69 | 1011.3 |
| 20260502180728 | 58 | 195 | 4.3 | 7.8 | 0.00 | 0.03 | 0.03 | 69 | 1011.4 |
| 20260502180225 | 58 | 225 | 7.8 | 7.8 | 0.00 | 0.03 | 0.03 | 67 | 1011.2 |
| 20260502170144 | 56 | 182 | 6.1 | 6.1 | 0.00 | 0.03 | 0.03 | 73 | 1011.8 |
| 20260502164130 | 56 | 204 | 5.2 | 6.1 | 0.00 | 0.03 | 0.03 | 73 | 1012.1 |
| 20260502163626 | 56 | 177 | 3.5 | 4.3 | 0.00 | 0.03 | 0.03 | 74 | 1012.1 |
| 20260502163123 | 56 | 189 | 2.6 | 5.2 | 0.00 | 0.03 | 0.03 | 75 | 1012.1 |
| 20260502162620 | 55 | 221 | 4.3 | 5.2 | 0.00 | 0.03 | 0.03 | 76 | 1012.2 |
| 20260502162117 | 55 | 187 | 2.6 | 6.1 | 0.00 | 0.03 | 0.03 | 77 | 1011.9 |
| 20260502161614 | 55 | 213 | 5.2 | 7.0 | 0.00 | 0.03 | 0.03 | 75 | 1012.1 |
| 20260502161111 | 55 | 218 | 5.2 | 6.1 | 0.00 | 0.03 | 0.03 | 77 | 1012.2 |
| 20260502160609 | 55 | 223 | 2.6 | 4.3 | 0.00 | 0.03 | 0.03 | 77 | 1012.2 |
| 20260502160108 | 55 | 207 | 3.5 | 5.2 | 0.00 | 0.03 | 0.03 | 78 | 1012.1 |
| 20260502152022 | 54 | 190 | 4.3 | 5.2 | 0.00 | 0.03 | 0.03 | 81 | 1012.2 |
| 20260502151519 | 54 | 186 | 4.3 | 4.3 | 0.00 | 0.03 | 0.03 | 80 | 1012.2 |
| 20260502151016 | 54 | 186 | 3.5 | 4.3 | 0.00 | 0.03 | 0.03 | 81 | 1012.3 |
| 20260502150514 | 54 | 186 | 2.6 | 4.3 | 0.00 | 0.03 | 0.03 | 80 | 1012.2 |
| 20260502130353 | 53 | 345 | 3.5 | 4.3 | 0.00 | 0.03 | 0.03 | 81 | 1012.7 |
| 20260502123336 | 53 | 278 | 0.0 | 2.6 | 0.00 | 0.03 | 0.03 | 87 | 1012.7 |
| 20260502122833 | 53 | 291 | 1.7 | 1.7 | 0.00 | 0.03 | 0.03 | 88 | 1012.7 |
| 20260502122328 | 53 | 306 | 0.0 | 1.7 | 0.00 | 0.03 | 0.03 | 89 | 1012.6 |
| 20260502121827 | 53 | 242 | 0.9 | 1.7 | 0.00 | 0.03 | 0.03 | 89 | 1012.5 |
| 20260502121324 | 52 | 263 | 0.9 | 2.6 | 0.00 | 0.03 | 0.03 | 89 | 1012.6 |
| 20260502120821 | 52 | 220 | 2.6 | 2.6 | 0.00 | 0.03 | 0.03 | 89 | 1012.7 |
| 20260502120317 | 51 | 253 | 0.9 | 4.3 | 0.00 | 0.03 | 0.03 | 90 | 1012.6 |
| 20260502115815 | 51 | 224 | 3.5 | 5.2 | 0.00 | 0.03 | 0.03 | 90 | 1013.0 |
| 20260502115312 | 51 | 246 | 1.7 | 5.2 | 0.00 | 0.03 | 0.03 | 90 | 1012.6 |
| 20260502114808 | 51 | 251 | 3.5 | 4.3 | 0.00 | 0.03 | 0.03 | 90 | 1012.7 |
| 20260502114305 | 51 | 222 | 2.6 | 4.3 | 0.00 | 0.03 | 0.03 | 90 | 1012.8 |
| 20260502113802 | 51 | 245 | 1.7 | 5.2 | 0.00 | 0.03 | 0.03 | 90 | 1012.7 |
| 20260502113300 | 51 | 235 | 4.3 | 6.1 | 0.00 | 0.03 | 0.03 | 90 | 1012.5 |
| 20260502112758 | 51 | 220 | 3.5 | 4.3 | 0.00 | 0.03 | 0.03 | 90 | 1012.3 |
| 20260502112255 | 51 | 189 | 3.5 | 3.5 | 0.00 | 0.03 | 0.03 | 90 | 1012.3 |
| 20260502111752 | 51 | 217 | 2.6 | 4.3 | 0.02 | 0.03 | 0.03 | 89 | 1012.5 |
| 20260502111250 | 50 | 225 | 2.6 | 4.3 | 0.02 | 0.03 | 0.03 | 89 | 1012.1 |
| 20260502110747 | 51 | 188 | 1.7 | 4.3 | 0.00 | 0.03 | 0.03 | 89 | 1012.0 |
| 20260502110245 | 50 | 200 | 1.7 | 3.5 | 0.07 | 0.03 | 0.03 | 89 | 1012.1 |
| 20260502105743 | 51 | 153 | 1.7 | 2.6 | 0.07 | 0.02 | 0.02 | 89 | 1012.0 |
| 20260502105238 | 51 | 97 | 0.0 | 2.6 | 0.02 | 0.01 | 0.01 | 88 | 1012.2 |
| 20260502104737 | 51 | 197 | 0.9 | 1.7 | 0.07 | 0.01 | 0.01 | 88 | 1012.4 |
| 20260502104234 | 51 | 177 | 0.9 | 2.6 | 0.05 | 0.01 | 0.01 | 87 | 1012.0 |
| 20260502103731 | 51 | 212 | 2.6 | 4.3 | 0.00 | 0.00 | 0.00 | 86 | 1012.2 |
| 20260502103229 | 51 | 210 | 2.6 | 4.3 | 0.00 | 0.00 | 0.00 | 86 | 1012.5 |
| 20260502102725 | 51 | 212 | 2.6 | 5.2 | 0.00 | 0.00 | 0.00 | 85 | 1012.5 |
| 20260502102222 | 51 | 214 | 1.7 | 2.6 | 0.00 | 0.00 | 0.00 | 85 | 1012.1 |
| 20260502101720 | 51 | 251 | 3.5 | 4.3 | 0.00 | 0.00 | 0.00 | 85 | 1012.2 |
| 20260502101218 | 51 | 268 | 3.5 | 4.3 | 0.00 | 0.00 | 0.00 | 85 | 1012.3 |
| 20260502100716 | 51 | 244 | 3.5 | 6.1 | 0.00 | 0.00 | 0.00 | 85 | 1012.4 |
| 20260502100214 | 51 | 214 | 6.1 | 9.6 | 0.00 | 0.00 | 0.00 | 84 | 1012.4 |
| 20260502091148 | 51 | 223 | 2.6 | 5.2 | 0.00 | 0.00 | 0.00 | 83 | 1012.2 |
| 20260502090645 | 51 | 205 | 5.2 | 9.6 | 0.00 | 0.00 | 0.00 | 83 | 1012.0 |
| 20260502090142 | 51 | 212 | 8.7 | 12.2 | 0.00 | 0.00 | 0.00 | 83 | 1012.1 |
| 20260502080105 | 51 | 201 | 5.2 | 7.0 | 0.00 | 0.00 | 0.00 | 85 | 1012.3 |
| 20260502071038 | 51 | 209 | 7.8 | 10.4 | 0.00 | 0.00 | 0.00 | 87 | 1012.3 |
| 20260502070536 | 51 | 226 | 3.5 | 10.4 | 0.00 | 0.00 | 0.00 | 87 | 1012.5 |
| 20260502070033 | 51 | 220 | 4.3 | 10.4 | 0.00 | 0.00 | 0.00 | 87 | 1012.5 |
| 20260502065532 | 51 | 213 | 7.0 | 14.8 | 0.00 | 0.00 | 0.00 | 87 | 1012.4 |
| 20260502065029 | 51 | 241 | 4.3 | 12.2 | 0.00 | 0.00 | 0.00 | 87 | 1012.5 |
| 20260502064527 | 51 | 221 | 7.0 | 9.6 | 0.00 | 0.00 | 0.00 | 86 | 1012.4 |
| 20260502064024 | 51 | 217 | 8.7 | 12.2 | 0.00 | 0.00 | 0.00 | 86 | 1012.4 |
| 20260502063522 | 51 | 208 | 5.2 | 13.0 | 0.00 | 0.00 | 0.00 | 86 | 1012.6 |
| 20260502063020 | 51 | 209 | 14.8 | 15.6 | 0.00 | 0.00 | 0.00 | 86 | 1012.7 |
| 20260502062516 | 51 | 218 | 6.1 | 14.8 | 0.00 | 0.00 | 0.00 | 86 | 1012.3 |
| 20260502062015 | 51 | 207 | 4.3 | 10.4 | 0.00 | 0.00 | 0.00 | 86 | 1012.9 |
| 20260502061512 | 51 | 200 | 5.2 | 13.0 | 0.00 | 0.00 | 0.00 | 86 | 1012.5 |
| 20260502061009 | 51 | 220 | 7.0 | 10.4 | 0.00 | 0.00 | 0.00 | 86 | 1012.7 |
| 20260502060504 | 51 | 216 | 6.1 | 10.4 | 0.00 | 0.00 | 0.00 | 86 | 1013.0 |
| 20260502060001 | 51 | 222 | 4.3 | 11.3 | 0.00 | 0.00 | 0.00 | 86 | 1012.8 |
| 20260502055459 | 51 | 227 | 7.8 | 9.6 | 0.00 | 0.00 | 0.00 | 86 | 1012.6 |
| 20260502054958 | 51 | 226 | 7.0 | 13.0 | 0.00 | 0.00 | 0.00 | 86 | 1013.0 |
| 20260502054455 | 51 | 212 | 6.1 | 13.0 | 0.00 | 0.00 | 0.00 | 85 | 1012.8 |
| 20260502053952 | 51 | 211 | 4.3 | 18.2 | 0.00 | 0.00 | 0.00 | 85 | 1012.6 |
| 20260502053449 | 51 | 191 | 4.3 | 12.2 | 0.00 | 0.00 | 0.00 | 84 | 1012.3 |
| 20260502052947 | 52 | 211 | 5.2 | 8.7 | 0.00 | 0.00 | 0.00 | 84 | 1012.2 |
| 20260502052445 | 52 | 209 | 6.1 | 7.8 | 0.00 | 0.00 | 0.00 | 84 | 1012.4 |
| 20260502051943 | 52 | 231 | 5.2 | 6.1 | 0.00 | 0.00 | 0.00 | 83 | 1012.5 |